Showing default

COSMOS 1603, 15333

Orbit data source: Space-Track

COSMOS 1603, 15333 is a payload satellite owned by TsNII-108 (CIS) in LEO that was launched on Fri, 28 Sep 1984 UTC via a PROTON-K/DM-2 launch vehicle from the Tyuratam Missile And Space Complex (TTMTR). Payloads include a variety of satellites, spacecraft, and rockets equipped with specific instruments for various scientific and technological missions. These include communications satellites like Starlink; space stations such as the ISS; scientific satellites like the Hubble; Earth observation satellites from companies like Planet Labs, Umbra, and HawkEye 360; GPS; miniature CubeSats for education and research; and military/defense satellites.

Loading next visibility...
COSMOS 1603 details
Identifier
15333, 1984-106A
Orbit
LEO
Last TLE update7 hours ago
Origin
Flag of CISTsNII-108 (CIS)
ManufacturerYuzhnoe
MissionDefense Sigint
Bus & MotorTSELINA-2, Unknown motor
Mass3,250 kg wet, 3,250 kg dry
Launch date (UTC)
1984-09-28 (40 years ago)
Launch vehicle
PROTON-K/DM-2
Launch site
Tyuratam Missile And Space Complex (TTMTR)
Object type
Payload
Rocket body
Debris
Shape & HBRUnknown shape, 19 m
Radar Cross SectionLarge (>1 m²)

Expand to show TLE details & history

TLE from 7 hours ago
0 COSMOS 1603
1 15333U 84106A   24361.53793875 -.00000001  00000-0  24101-4 0  9991
2 15333  71.0262  94.4583 0020422 334.6198  25.3919 14.14404186 76715
Epoch: 2024-12-26T12:54Z
Definitive object data (Epoch: 2024-12-26T12:54:37.907Z)
Latitude-0.00009°
Longitude165.28442°
Altitude833.42 km
Speed7.443 km/s
True Right ascension06h 17m 49s
True Declination0° 00' 00"
Sunlit
Object was in full shadow at TLE epoch
Visualization TLE readout
Latitude53.82373°
Longitude-43.2429°
Altitude865.053 km
Speed7.419 km/s
Apparent Right ascension11h 27m 52s
Apparent Declination24° 32' 34"
Sunlit
Object is in daylight
Visualization observer readout
Local Sidereal Time19:39:07
Azimuth309.709° NW
Elevation-6.406°
Doppler factor1
Orbital elements
Apogee altitude857.008 km
Perigee altitude827.517 km
Semi-major axis7,220.4 km
Eccentricity0.0020422
Inclination71.0262°
RAAN94.4583°
Arg. of periapsis334.6198°
True anomaly25.49248°
Mean anomaly25.3919°
Eccentric anomaly25.44217°
Mean motion3.53754 °/min
BSTAR0.000024101
Orbital period101.77 mins
Loading maneuver chart data...

COSMOS 1603 Visibility forecast

Observer location: undefined°, undefined

Span
Click to sort rows by Start time (UTC) header in descending order
Start Az.
Max El. time (UTC)
Max El. Az.
Max El.
End time (UTC)
End Az.
11 mins2024-12-27 07:41:19.962Z197.02° SSW2024-12-27 07:46:19.962Z163.724° S43.901°2024-12-27 07:52:19.962Z25.354° NE
5 mins2024-12-27 09:29:19.962Z283.801° WNW2024-12-27 09:31:19.962Z307.458° NW15.502°2024-12-27 09:34:19.962Z342.228° N
8 mins2024-12-27 16:38:19.962Z6.647° NNE2024-12-27 16:41:19.962Z53.536° ENE29.344°2024-12-27 16:46:19.962Z121.357° SE
8 mins2024-12-27 18:22:19.962Z306.901° NW2024-12-27 18:25:19.962Z261.591° W28.862°2024-12-27 18:30:19.962Z195.008° SSW
|